Time,TemperatureF,DewpointF,PressureIn,WindDirection,WindDirectionDegrees,WindSpeedMPH,WindSpeedGustMPH,Humidity,HourlyPrecipIn,Conditions,Clouds,dailyrainin,SoftwareType,DateUTC
2013-05-28 00:11:00,47.7,35.0,29.81,ESE,108,1.0,-999.0,62,-99.99,,,0.00,weatherlink.com 1.10,2013-05-28 05:11:00,
2013-05-28 00:26:00,46.4,35.0,29.79,ENE,74,3.0,-999.0,64,-99.99,,,0.00,weatherlink.com 1.10,2013-05-28 05:26:00,
2013-05-28 00:41:00,45.5,35.0,29.80,East,87,3.0,-999.0,66,-99.99,,,0.00,weatherlink.com 1.10,2013-05-28 05:41:00,
2013-05-28 00:56:00,45.1,35.0,29.80,East,99,3.0,-999.0,67,-99.99,,,0.00,weatherlink.com 1.10,2013-05-28 05:56:00,
2013-05-28 01:11:00,44.9,35.0,29.79,East,99,0.0,-999.0,68,-99.99,,,0.00,weatherlink.com 1.10,2013-05-28 06:11:00,
2013-05-28 01:26:00,45.2,36.0,29.79,East,99,1.0,-999.0,69,-99.99,,,0.00,weatherlink.com 1.10,2013-05-28 06:26:00,
2013-05-28 01:41:00,45.5,36.0,29.78,East,99,0.0,-999.0,70,-99.99,,,0.00,weatherlink.com 1.10,2013-05-28 06:41:00,
2013-05-28 01:56:00,46.1,36.0,29.77,East,99,0.0,-999.0,69,-99.99,,,0.00,weatherlink.com 1.10,2013-05-28 06:56:00,
2013-05-28 02:11:00,46.5,37.0,29.78,East,99,0.0,-999.0,69,-99.99,,,0.00,weatherlink.com 1.10,2013-05-28 07:11:00,
2013-05-28 02:26:00,46.8,37.0,29.77,East,99,0.0,-999.0,68,-99.99,,,0.00,weatherlink.com 1.10,2013-05-28 07:26:00,
2013-05-28 02:41:00,46.8,37.0,29.77,East,99,2.0,-999.0,68,-99.99,,,0.00,weatherlink.com 1.10,2013-05-28 07:41:00,
2013-05-28 02:56:00,47.0,37.0,29.75,East,99,2.0,-999.0,68,-99.99,,,0.00,weatherlink.com 1.10,2013-05-28 07:56:00,
2013-05-28 03:11:00,47.0,37.0,29.75,East,91,1.0,-999.0,69,-99.99,,,0.00,weatherlink.com 1.10,2013-05-28 08:11:00,
2013-05-28 03:26:00,46.8,37.0,29.73,ENE,59,1.0,-999.0,69,-99.99,,,0.00,weatherlink.com 1.10,2013-05-28 08:26:00,
2013-05-28 03:41:00,47.0,38.0,29.73,ENE,59,0.0,-999.0,70,-99.99,,,0.00,weatherlink.com 1.10,2013-05-28 08:41:00,
2013-05-28 03:57:00,47.1,38.0,29.73,ENE,59,0.0,-999.0,71,-99.99,,,0.00,weatherlink.com 1.10,2013-05-28 08:57:00,
2013-05-28 04:12:00,47.3,39.0,29.73,East,91,2.0,-999.0,72,-99.99,,,0.00,weatherlink.com 1.10,2013-05-28 09:12:00,
2013-05-28 04:27:00,48.3,40.0,29.72,East,101,1.0,-999.0,72,-99.99,,,0.00,weatherlink.com 1.10,2013-05-28 09:27:00,
2013-05-28 04:42:00,48.6,40.0,29.72,East,88,2.0,-999.0,71,-99.99,,,0.00,weatherlink.com 1.10,2013-05-28 09:42:00,
2013-05-28 04:57:00,48.6,39.0,29.73,ENE,61,1.0,-999.0,70,-99.99,,,0.00,weatherlink.com 1.10,2013-05-28 09:57:00,
2013-05-28 05:12:00,48.9,39.0,29.73,East,94,1.0,-999.0,70,-99.99,,,0.00,weatherlink.com 1.10,2013-05-28 10:12:00,
2013-05-28 05:27:00,48.9,39.0,29.73,East,88,4.0,-999.0,70,-99.99,,,0.00,weatherlink.com 1.10,2013-05-28 10:27:00,
2013-05-28 05:42:00,49.1,40.0,29.73,ENE,60,3.0,-999.0,70,-99.99,,,0.00,weatherlink.com 1.10,2013-05-28 10:42:00,
2013-05-28 05:57:00,49.2,39.0,29.73,ENE,65,0.0,-999.0,69,-99.99,,,0.00,weatherlink.com 1.10,2013-05-28 10:57:00,
2013-05-28 06:12:00,49.4,40.0,29.72,ENE,57,2.0,-999.0,70,-99.99,,,0.00,weatherlink.com 1.10,2013-05-28 11:12:00,
2013-05-28 06:27:00,49.6,40.0,29.72,NE,51,0.0,-999.0,70,-99.99,,,0.00,weatherlink.com 1.10,2013-05-28 11:27:00,
2013-05-28 06:42:00,50.2,40.0,29.73,East,90,1.0,-999.0,69,-99.99,,,0.00,weatherlink.com 1.10,2013-05-28 11:42:00,
2013-05-28 06:57:00,50.8,41.0,29.73,ENE,70,3.0,-999.0,69,-99.99,,,0.00,weatherlink.com 1.10,2013-05-28 11:57:00,
2013-05-28 07:12:00,51.3,41.0,29.72,ENE,76,3.0,-999.0,68,-99.99,,,0.00,weatherlink.com 1.10,2013-05-28 12:12:00,
2013-05-28 07:27:00,51.9,41.0,29.72,NE,50,0.0,-999.0,67,-99.99,,,0.00,weatherlink.com 1.10,2013-05-28 12:27:00,
2013-05-28 07:42:00,52.6,41.0,29.71,ENE,66,4.0,-999.0,66,-99.99,,,0.00,weatherlink.com 1.10,2013-05-28 12:42:00,
2013-05-28 07:57:00,53.5,41.0,29.70,NE,49,1.0,-999.0,64,-99.99,,,0.00,weatherlink.com 1.10,2013-05-28 12:57:00,
2013-05-28 08:12:00,54.2,42.0,29.69,NE,51,9.0,-999.0,64,-99.99,,,0.00,weatherlink.com 1.10,2013-05-28 13:12:00,
2013-05-28 08:27:00,54.2,42.0,29.68,NE,48,2.0,-999.0,63,-99.99,,,0.00,weatherlink.com 1.10,2013-05-28 13:27:00,
2013-05-28 08:42:00,54.5,42.0,29.68,East,84,2.0,-999.0,62,-99.99,,,0.00,weatherlink.com 1.10,2013-05-28 13:42:00,
2013-05-28 08:57:00,53.9,41.0,29.68,East,94,10.0,-999.0,62,-99.99,,,0.00,weatherlink.com 1.10,2013-05-28 13:57:00,
2013-05-28 09:12:00,53.6,41.0,29.68,ENE,74,7.0,-999.0,62,-99.99,,,0.00,weatherlink.com 1.10,2013-05-28 14:12:00,
2013-05-28 09:27:00,53.9,41.0,29.69,ENE,61,3.0,-999.0,63,-99.99,,,0.00,weatherlink.com 1.10,2013-05-28 14:27:00,
2013-05-28 09:42:00,54.5,42.0,29.69,ENE,78,5.0,-999.0,62,-99.99,,,0.00,weatherlink.com 1.10,2013-05-28 14:42:00,
2013-05-28 09:57:00,54.8,42.0,29.68,NE,38,9.0,-999.0,62,-99.99,,,0.00,weatherlink.com 1.10,2013-05-28 14:57:00,
2013-05-28 10:12:00,54.8,43.0,29.68,ENE,77,6.0,-999.0,64,-99.99,,,0.00,weatherlink.com 1.10,2013-05-28 15:12:00,
2013-05-28 10:27:00,55.0,42.0,29.69,East,101,5.0,-999.0,62,-99.99,,,0.00,weatherlink.com 1.10,2013-05-28 15:27:00,
2013-05-28 10:42:00,55.4,42.0,29.69,East,86,9.0,-999.0,62,-99.99,,,0.00,weatherlink.com 1.10,2013-05-28 15:42:00,
2013-05-28 10:57:00,56.2,44.0,29.69,East,101,10.0,-999.0,63,-99.99,,,0.00,weatherlink.com 1.10,2013-05-28 15:57:00,
2013-05-28 11:12:00,56.6,44.0,29.69,East,99,12.0,-999.0,63,-99.99,,,0.00,weatherlink.com 1.10,2013-05-28 16:12:00,
2013-05-28 11:27:00,57.6,45.0,29.69,NE,50,10.0,-999.0,64,-99.99,,,0.00,weatherlink.com 1.10,2013-05-28 16:27:00,
2013-05-28 11:42:00,58.4,46.0,29.69,NE,51,5.0,-999.0,63,-99.99,,,0.00,weatherlink.com 1.10,2013-05-28 16:42:00,
2013-05-28 11:57:00,59.0,46.0,29.68,NE,51,11.0,-999.0,62,-99.99,,,0.00,weatherlink.com 1.10,2013-05-28 16:57:00,
2013-05-28 12:12:00,59.5,46.0,29.68,ENE,66,3.0,-999.0,61,-99.99,,,0.00,weatherlink.com 1.10,2013-05-28 17:12:00,
2013-05-28 12:27:00,59.9,46.0,29.68,East,91,7.0,-999.0,60,-99.99,,,0.00,weatherlink.com 1.10,2013-05-28 17:27:00,
2013-05-28 12:42:00,60.9,46.0,29.68,NE,49,10.0,-999.0,59,-99.99,,,0.00,weatherlink.com 1.10,2013-05-28 17:42:00,
2013-05-28 12:57:00,61.0,46.0,29.67,East,96,6.0,-999.0,58,-99.99,,,0.00,weatherlink.com 1.10,2013-05-28 17:57:00,
2013-05-28 13:13:00,62.0,46.0,29.67,East,90,12.0,-999.0,56,-99.99,,,0.00,weatherlink.com 1.10,2013-05-28 18:13:00,
2013-05-28 13:28:00,61.3,46.0,29.66,NE,50,12.0,-999.0,57,-99.99,,,0.00,weatherlink.com 1.10,2013-05-28 18:28:00,
2013-05-28 13:43:00,62.3,46.0,29.66,ENE,62,0.0,-999.0,56,-99.99,,,0.00,weatherlink.com 1.10,2013-05-28 18:43:00,
2013-05-28 13:58:00,61.8,45.0,29.66,SSE,168,6.0,-999.0,54,-99.99,,,0.00,weatherlink.com 1.10,2013-05-28 18:58:00,
2013-05-28 14:13:00,60.9,44.0,29.67,ESE,113,10.0,-999.0,55,-99.99,,,0.00,weatherlink.com 1.10,2013-05-28 19:13:00,
2013-05-28 14:28:00,60.9,45.0,29.66,East,86,9.0,-999.0,56,-99.99,,,0.00,weatherlink.com 1.10,2013-05-28 19:28:00,
2013-05-28 14:43:00,61.8,45.0,29.66,ENE,76,7.0,-999.0,55,-99.99,,,0.00,weatherlink.com 1.10,2013-05-28 19:43:00,
2013-05-28 14:58:00,62.1,44.0,29.66,ENE,63,5.0,-999.0,52,-99.99,,,0.00,weatherlink.com 1.10,2013-05-28 19:58:00,
2013-05-28 15:13:00,62.4,43.0,29.66,East,89,12.0,-999.0,50,-99.99,,,0.00,weatherlink.com 1.10,2013-05-28 20:13:00,
2013-05-28 15:28:00,61.0,42.0,29.66,ENE,66,6.0,-999.0,50,-99.99,,,0.00,weatherlink.com 1.10,2013-05-28 20:28:00,
2013-05-28 15:43:00,60.1,43.0,29.66,ENE,72,7.0,-999.0,54,-99.99,,,0.00,weatherlink.com 1.10,2013-05-28 20:43:00,
2013-05-28 15:58:00,59.9,43.0,29.66,ENE,64,6.0,-999.0,55,-99.99,,,0.00,weatherlink.com 1.10,2013-05-28 20:58:00,
2013-05-28 16:13:00,58.9,43.0,29.66,East,101,6.0,-999.0,57,-99.99,,,0.00,weatherlink.com 1.10,2013-05-28 21:13:00,
2013-05-28 16:28:00,59.0,44.0,29.66,ENE,58,4.0,-999.0,57,-99.99,,,0.00,weatherlink.com 1.10,2013-05-28 21:28:00,
2013-05-28 16:43:00,58.4,43.0,29.66,East,90,4.0,-999.0,57,-99.99,,,0.00,weatherlink.com 1.10,2013-05-28 21:43:00,
2013-05-28 16:58:00,58.3,43.0,29.66,ESE,112,7.0,-999.0,57,-99.99,,,0.00,weatherlink.com 1.10,2013-05-28 21:58:00,
2013-05-28 17:13:00,58.0,43.0,29.66,East,94,0.0,-999.0,57,-99.99,,,0.00,weatherlink.com 1.10,2013-05-28 22:13:00,
2013-05-28 17:28:00,57.6,43.0,29.66,East,83,5.0,-999.0,59,-99.99,,,0.00,weatherlink.com 1.10,2013-05-28 22:28:00,
2013-05-28 17:58:00,57.0,43.0,29.66,ENE,78,1.0,-999.0,60,-99.99,,,0.00,weatherlink.com 1.10,2013-05-28 22:58:00,
2013-05-28 18:13:00,56.5,41.0,29.66,ESE,108,3.0,-999.0,56,-99.99,,,0.00,weatherlink.com 1.10,2013-05-28 23:13:00,
2013-05-28 18:28:00,55.7,41.0,29.66,ESE,102,6.0,-999.0,58,-99.99,,,0.00,weatherlink.com 1.10,2013-05-28 23:28:00,
2013-05-28 18:43:00,55.6,40.0,29.66,ENE,75,2.0,-999.0,57,-99.99,,,0.00,weatherlink.com 1.10,2013-05-28 23:43:00,
2013-05-28 18:58:00,55.7,41.0,29.66,NNE,33,0.0,-999.0,58,-99.99,,,0.00,weatherlink.com 1.10,2013-05-28 23:58:00,
2013-05-28 19:13:00,55.9,40.0,29.66,NE,56,6.0,-999.0,55,-99.99,,,0.00,weatherlink.com 1.10,2013-05-29 00:13:00,
2013-05-28 19:28:00,56.2,39.0,29.65,East,81,0.0,-999.0,53,-99.99,,,0.00,weatherlink.com 1.10,2013-05-29 00:28:00,
2013-05-28 19:43:00,55.4,40.0,29.65,ESE,105,4.0,-999.0,56,-99.99,,,0.00,weatherlink.com 1.10,2013-05-29 00:43:00,
2013-05-28 19:58:00,54.8,40.0,29.66,East,82,3.0,-999.0,57,-99.99,,,0.00,weatherlink.com 1.10,2013-05-29 00:58:00,
2013-05-28 20:13:00,54.5,40.0,29.65,ENE,63,2.0,-999.0,59,-99.99,,,0.00,weatherlink.com 1.10,2013-05-29 01:13:00,
2013-05-28 20:28:00,54.4,40.0,29.66,East,79,1.0,-999.0,58,-99.99,,,0.00,weatherlink.com 1.10,2013-05-29 01:28:00,
2013-05-28 20:43:00,54.2,39.0,29.66,East,79,1.0,-999.0,57,-99.99,,,0.00,weatherlink.com 1.10,2013-05-29 01:43:00,
2013-05-28 20:58:00,54.1,39.0,29.66,East,90,3.0,-999.0,56,-99.99,,,0.00,weatherlink.com 1.10,2013-05-29 01:58:00,
2013-05-28 21:13:00,53.5,38.0,29.66,East,89,3.0,-999.0,56,-99.99,,,0.00,weatherlink.com 1.10,2013-05-29 02:13:00,
2013-05-28 21:28:00,52.8,37.0,29.66,East,97,0.0,-999.0,56,-99.99,,,0.00,weatherlink.com 1.10,2013-05-29 02:28:00,
2013-05-28 21:43:00,51.9,37.0,29.66,East,97,1.0,-999.0,57,-99.99,,,0.00,weatherlink.com 1.10,2013-05-29 02:43:00,
2013-05-28 21:58:00,51.1,37.0,29.66,East,95,1.0,-999.0,60,-99.99,,,0.00,weatherlink.com 1.10,2013-05-29 02:58:00,
2013-05-28 22:13:00,51.0,37.0,29.64,ENE,76,1.0,-999.0,60,-99.99,,,0.00,weatherlink.com 1.10,2013-05-29 03:13:00,
2013-05-28 22:28:00,50.8,37.0,29.65,East,90,4.0,-999.0,60,-99.99,,,0.00,weatherlink.com 1.10,2013-05-29 03:28:00,
2013-05-28 22:43:00,50.5,38.0,29.65,ENE,62,7.0,-999.0,62,-99.99,,,0.00,weatherlink.com 1.10,2013-05-29 03:43:00,
2013-05-28 22:58:00,49.9,38.0,29.65,East,90,3.0,-999.0,64,-99.99,,,0.00,weatherlink.com 1.10,2013-05-29 03:58:00,
2013-05-28 23:13:00,49.5,38.0,29.65,East,89,6.0,-999.0,65,-99.99,,,0.00,weatherlink.com 1.10,2013-05-29 04:13:00,
2013-05-28 23:28:00,49.4,38.0,29.65,East,93,2.0,-999.0,66,-99.99,,,0.00,weatherlink.com 1.10,2013-05-29 04:28:00,
2013-05-28 23:43:00,49.2,38.0,29.66,East,91,3.0,-999.0,66,-99.99,,,0.00,weatherlink.com 1.10,2013-05-29 04:43:00,
2013-05-28 23:58:00,48.6,38.0,29.67,East,89,0.0,-999.0,67,-99.99,,,0.00,weatherlink.com 1.10,2013-05-29 04:58:00,